Powrót do katalogu

FREGAT DEB

LostUNKNOWN
NORAD 45849·DEBRIS·🇷🇺 Russia

Wystrzelony Jul 18, 2011 z Baikonur Cosmodrome

Loading…

Następne Przeloty (najbliższe 24 godziny)

TLE

Starzejące sięSource: Space-Track

Epoka: Aug 12, 2026, 03:43 UTC

1 45849U 11037CK  26224.15520404 -.00021509  00000-0 -63745-1 0  9994
2 45849  51.3019  44.9759 1627230 253.7008  87.9317 10.90009733 17178

Śledź FREGAT DEB w czasie rzeczywistym z AllMySat

Download on the App Store